CZ-3B R/B, 45808

Orbit data source: Space-Track

CZ-3B R/B, 45808 is space debris in HEO originally from a launch on Tue, 23 Jun 2020 UTC launched from the Xichang Space Center, China (XSC). Debris objects in space refer to the collection of defunct objects orbiting the Earth. Examples of debris include non-operational satellites, rocket bodies, and fragments generated from explosions, collisions, or faulty payload assembly.

Loading next visibility...
Identifier
45808, 2020-040B
Orbit
HEO
Country
Flag of CNCN / PRC
Related business
Manufacturer
CALT
Mission
Spacecraft
Bus & Motor
CZ-3A STAGE 3, Unknown motor
Mass
~2,800 kg wet, ~2,800 kg dry
Launch date (UTC)
2020-06-23 (5 years ago)
Launch vehicle
Unknown
Launch site
Xichang Space Center, China (XSC)
Object type
Payload
Rocket body
Debris
Shape & HBR
Cyl + 1 Nozzle, 6.2 m
Radar Cross Section
32.704 m², Large (>1 m²)

Expand to show TLE details & history
Last TLE update: 1 day ago

TLE from 1 day ago
0 CZ-3B R/B
1 45808U 20040B   25249.02353222  .00024724  00000-0  22311-2 0  9992
2 45808  28.1302 135.7543 6607672 171.0538 212.3985  3.19813106 51907
Epoch: 2025-09-06T00:33Z
TLE epoch observation values (Epoch: 2025-09-06T00:33:53.183Z)
Latitude
0.00022°
Longitude
141.92017°
Altitude
25,197.186 km
Speed
2.183 km/s
True Right ascension
09h 03m 01s
True Declination
0° 00' 01"
Sunlit
Object was in daylight at epoch
Visualization orbit readout
Latitude
Unknown
Longitude
Unknown
Altitude
Unknown
Speed
Unknown
Apparent Right ascension
Unknown
Apparent Declination
Unknown
Sunlit
N/A
Visualization observer readout
Local Sidereal Time
20:23:34
Azimuth
Unknown
Elevation
Unknown
Doppler factor
Unknown
Orbital elements
Apogee altitude
25,945.954 km
Perigee altitude
224.469 km
Semi-major axis
19,463.348 km
Eccentricity
0.66077
Inclination
28.1302°
RAAN
135.7543°
Arg. of periapsis
171.0538°
True anomaly
188.95572°
Mean anomaly
212.3985°
Eccentric anomaly
199.66076°
Mean motion
0.79931 °/min
Orbital period
450.39 mins
BSTAR
0.0022311
Loading maneuver chart data...
Computing Atmospheric mass density...
Loading historical data...
Loading historical data...
Loading historical data...
Loading historical data...
Loading historical data...
Loading historical data...
Loading historical data...
Other satellites on launch #40 in the year 2020 (2020-06-23 UTC)

Documentation

Showing up to 5 results
|